[[{"header":{"parameterUnit":"m.s-1","parameterCategory":1,"la1":30.2991,"la2":30.254,"lo1":-89.0895,"lo2":-89.0444,"dy":0.0017,"dx":0.0017,"nx":28,"ny":28,"refTime":"2025-04-15T03:00:00:Z","depth":0,"parameterNumber":2,"parameterNumberName":"U-component_of_WINDS"},"data":[0,0,0,0,0,0,0,0,0,0,0,0,0,0,0,0,0,0,0,0,0,0,0,0,0,0,0,0,0,0,0,0,0,0,0,0,0,0,0,0,0,0,0,0,0,0,0,0,0,0,0,0,0,0,0,0,0,0,2.619,2.619,0,2.6246,2.6247,2.6248,2.6165,2.6162,2.6159,2.6157,2.6219,2.6223,2.6227,0,0,0,0,0,0,0,0,0,0,0,0,0,2.6014,2.6018,2.619,2.619,2.6191,2.6246,2.6247,2.6248,2.6166,2.6162,2.6159,2.6155,2.6217,2.6222,2.6228,0,0,0,0,0,0,0,0,0,0,0,0,0,2.6083,2.6019,2.619,2.6157,2.6154,2.6246,2.6247,2.6248,2.6167,2.6162,2.6158,2.6154,2.6216,2.6222,2.6228,2.6356,0,0,2.6248,2.6251,0,0,0,0,0,0,0,0,2.6079,2.6089,2.6161,2.6159,2.6157,2.6194,2.6208,2.6284,2.6168,2.6162,2.6157,2.6152,2.6214,2.6221,2.6241,2.6359,2.6362,2.6249,2.6253,2.6256,2.6258,0,0,0,0,0,0,0,2.6074,2.6086,2.6212,2.6162,2.6159,2.614,2.6145,2.6222,2.6212,2.6162,2.6156,2.6164,2.6212,2.6235,2.6242,2.6363,2.6249,2.6255,2.6259,2.6261,2.6589,2.6593,0,0,0,0,0,0,2.6073,2.6083,2.621,2.6214,2.6106,2.6147,2.6153,2.6187,2.6211,2.621,2.6168,2.616,2.6226,2.6234,2.6244,2.6395,2.6256,2.6262,2.6266,2.6584,2.659,2.6595,0,0,0,0,0,0,2.6069,2.6085,2.6208,2.6147,2.6161,2.6155,2.6194,2.619,2.6212,2.6215,2.6213,2.6192,2.6223,2.6235,2.6329,2.6396,2.6265,2.6271,2.6578,2.6586,2.6592,2.6698,0,0,0,0,0,0,2.6065,2.6084,2.6132,2.6148,2.6165,2.6291,2.6198,2.6194,2.6223,2.6214,2.6238,2.6237,2.622,2.6319,2.6335,2.6403,2.6276,2.6572,2.6582,2.659,2.6689,2.6708,2.6725,0,0,0,0,0,2.6059,2.616,2.6135,2.6151,2.6224,2.6295,2.6304,2.6281,2.6229,2.6278,2.6279,2.6237,2.6386,2.633,2.6347,2.6417,2.6568,2.6579,2.6589,2.6681,2.6705,2.6725,0,0,0,0,0,0,2.6153,2.6162,2.6134,2.6243,2.6269,2.6281,2.6341,2.6307,2.6349,2.6339,2.631,2.6316,2.6417,2.6426,2.6363,2.6542,2.6468,2.6483,2.6532,2.6555,2.6572,2.6568,2.6281,0,0,0,0,0,2.6186,2.6242,2.6248,2.6344,2.6358,2.6348,2.6378,2.6358,2.6384,2.6395,2.6403,2.6431,2.6484,2.652,2.6569,2.669,2.6694,2.6747,2.6765,2.678,2.6793,2.6858,2.6882,2.663,2.663,2.663,0,0,2.6256,2.6268,2.6305,2.6363,2.6381,2.644,2.6358,2.6424,2.6469,2.6405,2.6494,2.6502,2.6531,2.6639,2.6687,2.665,2.6863,2.6794,2.6805,2.681,2.6871,2.6895,2.6916,2.6637,2.6636,2.6635,0,0,2.6413,2.6428,2.651,2.6529,2.6556,2.6549,2.6569,2.6586,2.6588,2.6677,2.6631,2.6684,2.6776,2.6798,2.6822,2.6989,2.6952,2.7006,2.71,2.7164,2.7184,2.7201,2.7261,2.7283,2.7019,2.702,2.702,0,2.6497,2.6584,2.6556,2.6626,2.6654,2.6598,2.6681,2.6702,2.6744,2.6765,2.6723,2.6837,2.6853,2.6966,2.7006,2.7027,2.705,2.7003,2.7183,2.72,2.7216,2.7273,2.7295,2.7026,2.7025,2.7025,2.7024,0,2.6685,2.6747,2.681,2.6851,2.6885,2.6962,2.6947,2.6985,2.6963,2.696,2.7052,2.7069,2.712,2.7146,2.7125,2.7256,2.7232,2.7187,2.7112,2.7247,2.73,2.7321,2.7035,2.7033,2.7031,2.7029,0,0,2.6903,2.6928,2.6952,2.697,2.6996,2.7044,2.7119,2.7168,2.7201,2.7233,2.7295,2.7375,2.7333,2.736,2.7341,2.7398,2.7529,2.7346,2.7346,2.7379,2.7675,2.7709,2.7734,2.7504,2.7508,2.7512,2.7673,0,2.706,2.7187,2.7165,2.7289,2.7345,2.7294,2.7359,2.7383,2.7383,2.7432,2.7432,2.7489,2.743,2.7446,2.7499,2.7502,2.7588,2.749,2.7563,2.7566,2.7557,2.7762,2.7797,2.7948,2.7693,2.7696,2.7699,0,2.726,2.7298,2.7427,2.7445,2.7468,2.7526,2.757,2.7617,2.7644,2.764,2.7671,2.7642,2.7717,2.7641,2.7745,2.7679,2.7708,2.7714,2.7719,2.7725,2.764,2.7773,2.7996,2.8018,2.7731,2.7729,2.7726,0,2.7405,2.7489,2.7577,2.7594,2.7617,2.766,2.7672,2.7694,2.7725,2.7764,2.7784,2.7832,2.7858,2.7896,2.7881,2.7827,2.7989,2.7912,2.7988,2.7989,2.8024,2.8022,2.8255,2.8043,2.8043,2.8043,2.8042,0,2.7582,2.7664,2.7643,2.7697,2.7787,2.7762,2.7852,2.7857,2.7878,2.7933,2.7892,2.7946,2.7923,2.7975,2.7964,2.8052,2.8064,2.8064,2.806,2.8067,2.8068,2.8086,2.8075,2.8049,2.8047,2.8046,2.8045,0,2.776,2.7749,2.7842,2.7856,2.7862,2.7928,2.794,2.7992,2.7988,2.8059,2.8074,2.807,2.8129,2.8118,2.8184,2.8177,2.8287,2.827,2.8278,2.8274,2.8351,2.8344,2.8603,2.8636,2.8404,2.8406,2.8408,0,2.7873,2.7935,2.7955,2.7989,2.8004,2.8059,2.809,2.8068,2.8103,2.8138,2.8186,2.8241,2.8284,2.8381,2.8385,2.8435,2.8419,2.8507,2.8426,2.8432,2.842,2.8417,2.8423,2.8522,2.8525,2.8527,2.8529,0,2.8076,2.8068,2.8114,2.816,2.8198,2.8233,2.8264,2.8294,2.8275,2.8316,2.8375,2.8409,2.8476,2.8531,2.8578,2.8592,2.8558,2.8554,2.8575,2.8583,2.8584,2.8585,2.8321,2.8548,2.8546,2.8545,2.8544,2.8543,2.8225,2.8277,2.83,2.8353,2.8374,2.8404,2.8453,2.8456,2.8505,2.8557,2.8541,2.8609,2.8635,2.8694,2.8713,2.8767,2.8734,2.8764,2.8771,2.8779,2.8788,2.8576,2.8775,2.8775,2.8774,2.8774,2.8773,0,2.8425,2.8437,2.8487,2.8531,2.8574,2.8537,2.857,2.8608,2.8668,2.8695,2.8738,2.8807,2.8861,2.8869,2.892,2.8962,2.8947,2.8976,2.8972,2.8976,2.8814,2.8791,2.8986,2.8986,2.8986,2.8986,2.8986,2.8986,2.8534,2.8621,2.8616,2.8712,2.8724,2.8789,2.8811,2.8839,2.886,2.8939,2.8983,2.8988,2.9007,2.906,2.9108,2.9109,2.913,2.9165,2.916,2.9009,2.8988,2.8967,2.8946,2.917,2.917,2.9317,2.9319,2.932]},{"header":{"parameterUnit":"m.s-1","parameterCategory":1,"la1":30.2991,"la2":30.254,"lo1":-89.0895,"lo2":-89.0444,"dy":0.0017,"dx":0.0017,"nx":28,"ny":28,"refTime":"2025-04-15T03:00:00:Z","depth":0,"parameterNumber":3,"parameterNumberName":"V-component_of_WINDS"},"data":[0,0,0,0,0,0,0,0,0,0,0,0,0,0,0,0,0,0,0,0,0,0,0,0,0,0,0,0,0,0,0,0,0,0,0,0,0,0,0,0,0,0,0,0,0,0,0,0,0,0,0,0,0,0,0,0,0,0,5.4764,5.4766,0,5.4961,5.4963,5.4965,5.4959,5.4956,5.4954,5.4951,5.5144,5.5152,5.5159,0,0,0,0,0,0,0,0,0,0,0,0,0,5.4376,5.4384,5.4764,5.4767,5.4769,5.496,5.4963,5.4966,5.4959,5.4956,5.4953,5.495,5.5142,5.5151,5.516,0,0,0,0,0,0,0,0,0,0,0,0,0,5.4556,5.4386,5.4764,5.4789,5.4793,5.496,5.4963,5.4966,5.496,5.4956,5.4952,5.4948,5.5139,5.515,5.5161,5.5313,0,0,5.5196,5.5201,0,0,0,0,0,0,0,0,5.4546,5.457,5.4783,5.4788,5.4793,5.4931,5.4897,5.5082,5.4961,5.4897,5.4951,5.4946,5.5076,5.5092,5.5138,5.5322,5.533,5.5197,5.5204,5.5209,5.5212,0,0,0,0,0,0,0,5.4533,5.4561,5.4842,5.4786,5.4792,5.4788,5.4809,5.4932,5.5006,5.4902,5.4902,5.4926,5.5078,5.5127,5.5142,5.5333,5.5197,5.5207,5.5214,5.5219,5.565,5.5654,0,0,0,0,0,0,5.4516,5.4551,5.4835,5.4847,5.4657,5.4799,5.4822,5.4891,5.5005,5.5019,5.4929,5.4925,5.5109,5.5129,5.5149,5.5334,5.5209,5.522,5.5226,5.5645,5.5651,5.5656,0,0,0,0,0,0,5.4508,5.4542,5.4827,5.47,5.4736,5.481,5.4887,5.4897,5.4946,5.5026,5.5038,5.4966,5.5107,5.5133,5.5272,5.534,5.5225,5.5235,5.564,5.5647,5.5653,5.5704,0,0,0,0,0,0,5.4497,5.4539,5.4599,5.4701,5.4743,5.495,5.4891,5.4903,5.4967,5.4963,5.5063,5.5076,5.5106,5.5255,5.5284,5.5354,5.5244,5.5634,5.5643,5.5651,5.5697,5.5712,5.5725,0,0,0,0,0,5.4483,5.4604,5.4602,5.4636,5.482,5.4954,5.4977,5.5011,5.4972,5.5032,5.5083,5.5073,5.5328,5.527,5.5302,5.5376,5.563,5.564,5.565,5.5691,5.5709,5.5725,0,0,0,0,0,0,5.4505,5.4618,5.4617,5.4775,5.4855,5.4953,5.5029,5.503,5.5121,5.5113,5.5149,5.5172,5.5311,5.5358,5.529,5.5529,5.5474,5.5491,5.5493,5.5512,5.5526,5.5511,5.5254,0,0,0,0,0,5.4529,5.4631,5.4723,5.4853,5.4894,5.4955,5.5014,5.5034,5.5117,5.5151,5.5212,5.5291,5.5389,5.5453,5.5548,5.5704,5.5725,5.5771,5.5785,5.5796,5.581,5.5895,5.5917,5.5689,5.5689,5.5689,0,0,5.4578,5.4652,5.4714,5.4859,5.4924,5.5027,5.4983,5.5094,5.517,5.5166,5.5303,5.535,5.5441,5.5589,5.5658,5.5632,5.5878,5.5809,5.5817,5.5826,5.5908,5.5929,5.5949,5.5696,5.5695,5.5694,0,0,5.472,5.4787,5.4903,5.4969,5.5069,5.5108,5.5136,5.5234,5.5267,5.5405,5.5404,5.5493,5.5662,5.5727,5.5781,5.5948,5.5942,5.5978,5.6051,5.6134,5.6152,5.6168,5.6227,5.6248,5.5992,5.5992,5.5992,0,5.4768,5.4925,5.4962,5.5074,5.5137,5.5142,5.5258,5.532,5.5444,5.5486,5.5457,5.5669,5.573,5.5893,5.5934,5.5979,5.601,5.5967,5.6147,5.6163,5.6179,5.6235,5.6258,5.5996,5.5995,5.5995,5.5995,0,5.4979,5.5088,5.5169,5.5292,5.5365,5.5478,5.553,5.5598,5.5611,5.5653,5.5793,5.5866,5.5976,5.6016,5.6029,5.6181,5.6163,5.614,5.6085,5.6204,5.6257,5.6279,5.6001,5.6,5.5999,5.5998,0,0,5.514,5.5283,5.5312,5.5368,5.5478,5.5562,5.5674,5.5784,5.5842,5.5927,5.6021,5.6164,5.6144,5.6206,5.6226,5.6299,5.6425,5.6267,5.6269,5.6293,5.6597,5.6614,5.6638,5.6422,5.6426,5.643,5.6589,0,5.5293,5.5498,5.5534,5.5711,5.5811,5.5817,5.5915,5.5992,5.6034,5.6123,5.6168,5.6269,5.6235,5.6273,5.6345,5.6395,5.6487,5.6384,5.6508,5.6512,5.6486,5.6667,5.6685,5.6832,5.6611,5.6614,5.6617,0,5.55,5.5594,5.5782,5.5879,5.5922,5.601,5.6114,5.62,5.6286,5.6311,5.6382,5.6393,5.6508,5.6449,5.6606,5.6535,5.6588,5.662,5.6626,5.6639,5.6572,5.6684,5.688,5.6902,5.665,5.6648,5.6645,0,5.5598,5.5771,5.5906,5.5953,5.607,5.6132,5.6182,5.6265,5.6329,5.6418,5.646,5.656,5.6615,5.6692,5.6729,5.6682,5.6884,5.6827,5.6906,5.6905,5.6948,5.6945,5.7155,5.6983,5.6982,5.6982,5.6981,0,5.5766,5.5881,5.5952,5.6035,5.6163,5.6202,5.6327,5.6376,5.6449,5.654,5.655,5.6634,5.6678,5.6768,5.6798,5.6923,5.6948,5.697,5.6976,5.6969,5.6967,5.7004,5.6995,5.6988,5.6986,5.6985,5.6984,0,5.5898,5.595,5.6098,5.6197,5.6224,5.6314,5.6397,5.6477,5.6519,5.6633,5.6662,5.6727,5.6834,5.6879,5.7009,5.7029,5.7173,5.7171,5.7145,5.7147,5.7223,5.7215,5.7464,5.7499,5.7303,5.7305,5.7307,0,5.6001,5.609,5.6199,5.6262,5.6316,5.6416,5.6483,5.6524,5.6592,5.6697,5.6763,5.6871,5.6959,5.7128,5.7185,5.7284,5.7285,5.7366,5.73,5.729,5.7286,5.728,5.7289,5.7378,5.738,5.7381,5.7382,0,5.6179,5.6201,5.6297,5.6403,5.6483,5.6567,5.6649,5.6699,5.6753,5.6828,5.6939,5.7008,5.7142,5.7248,5.7351,5.7399,5.74,5.7403,5.7426,5.742,5.7401,5.7412,5.7177,5.7397,5.7395,5.7394,5.7394,5.7393,5.63,5.6379,5.6469,5.6576,5.6642,5.6719,5.6799,5.6852,5.6947,5.7061,5.7079,5.7197,5.7279,5.7418,5.7471,5.7562,5.7542,5.7575,5.7584,5.7592,5.7597,5.7387,5.7581,5.758,5.758,5.758,5.758,0,5.6478,5.6536,5.6634,5.6751,5.6835,5.6831,5.6921,5.6991,5.7096,5.7174,5.7262,5.7388,5.7491,5.7557,5.766,5.772,5.7722,5.7745,5.7741,5.7752,5.7609,5.7579,5.7741,5.7741,5.7741,5.7741,5.7741,5.7741,5.658,5.6715,5.6747,5.6914,5.697,5.7089,5.7141,5.7211,5.7274,5.7417,5.7503,5.7546,5.7619,5.7728,5.7821,5.7837,5.7874,5.7899,5.7914,5.7779,5.7762,5.7746,5.7718,5.7907,5.7907,5.8049,5.805,5.8051]}]]